Location: Ernsee
(50.8780°N, 12.0389°E)
Time: 16:15:34
(UTC+00:00)

Okean O Rocket - Pass Details

Date: 20 January 2020
Orbit: 623 x 645 km, 98.2° (Epoch: 19 February)

Event Time Altitude Azimuth Distance (km) Brightness Sun altitude
Rises 06:06:48 0° 6° (N) 2,971 4.9 -8.9°
Reaches altitude 10° 06:09:15 10° 355° (N) 2,055 4.0 -8.6°
Maximum altitude 06:13:03 28° 297° (WNW) 1,218 2.5 -8.0°
Drops below altitude 10° 06:16:49 10° 239° (WSW) 2,036 3.9 -7.4°
Sets 06:19:14 0° 228° (SW) 2,938 4.8 -7.1°
